Regional Weather Roundup
Issued by NWS Upton, NY

Current Version | Previous Version | Graphics & Text | Print | Product List | Glossary Off
Versions: 1 2 3 4 5 6 7 8 9 10 11 12 13 14 15 16 17 18 19 20 21 22 23 24 25 26 27

000
ASUS41 KOKX 291808
RWROKX

REGIONAL WEATHER ROUNDUP
NATIONAL WEATHER SERVICE NEW YORK NY
200 PM EDT SAT APR 29 2017

NOTE: "FAIR" INDICATES FEW OR NO CLOUDS BELOW 12,000 FEET WITH NO
SIGNIFICANT WEATHER AND/OR OBSTRUCTIONS TO VISIBILITY.

NYZ071-072-176-178-NJZ106-104-291900-
NEW YORK CITY METRO AREA

CITY           SKY/WX    TMP DP  RH WIND       PRES   REMARKS
Central Park   CLOUDY    82  61  48 VRB7      29.97S
Wall St Helipt PTCLDY    80  60  50 W14G25    29.96R
Bronx Bot Gard   N/A     82  59  44 W15       29.94F
LaGuardia APRT CLOUDY    85  60  42 W12       29.93F
Kennedy INTL   PTSUNNY   79  65  62 SW22      29.96F
Breezy Point     N/A     73 N/A N/A SW9G15      N/A
Newark/Liberty CLOUDY    84  61  45 W17G24    29.94S
Teterboro      CLOUDY    82  63  52 NW13G23   29.93S
$$

NYZ177-179-078>081-291900-
LONG ISLAND NEW YORK

CITY           SKY/WX    TMP DP  RH WIND       PRES   REMARKS
Jones Beach      N/A     68 N/A N/A SW10G16     N/A
Matinecock PT    N/A     72 N/A N/A SW10        N/A
Farmingdale    SUNNY     83  62  49 W20G25    29.95F
MacArthur/ISP  PTSUNNY   79  64  60 SW13      29.92F
Shirley        MOSUNNY   76  64  66 SW12      29.93F
Mt Sinai Harb    N/A     81 N/A N/A W8          N/A
Westhampton    MOSUNNY   74  62  66 SW13      29.94F
East Hampton     N/A     75  64  69 SW9       29.91F
Montauk          N/A     77  62  59 SW6       29.91
$$

NYZ052-065-067-291900-
HUDSON VALLEY

CITY           SKY/WX    TMP DP  RH WIND       PRES   REMARKS
White Plains   CLOUDY    80  61  52 W12       29.94S
Larchmont Harb   N/A     79 N/A N/A W14G21      N/A
Croton O-T Hud   N/A     72 N/A N/A NW10        N/A
Newburgh       PTSUNNY   79  63  57 W14       29.95F
Montgomery     MOSUNNY   80  59  48 W14G20    29.93F
Poughkeepsie   CLOUDY    79  59  50 W10       29.91F
Albany         CLOUDY    69  52  54 NW14G23   29.97F
$$

NJZ001-105-106-008-010-013-015-019>022-104-291900-
NEW JERSEY

CITY           SKY/WX    TMP DP  RH WIND       PRES   REMARKS
Newark/Liberty CLOUDY    84  61  45 W17G24    29.94S
Teterboro      CLOUDY    82  63  52 NW13G23   29.93S
Caldwell       CLOUDY    83  60  45 NW14G20   29.95S
Somerville     CLOUDY    82  63  52 W8        29.96R
Linden           N/A     82  61  49 W12G18    29.96S
Perth Amboy      N/A     77 N/A N/A W17         N/A
Sussex         CLOUDY    78  61  55 W6        29.98R
Andover          N/A     78  61  55 VRB7G20   29.99R
Trenton        CLOUDY    82  63  52 W10       29.99R
Millville      PTSUNNY   86  64  47 W13G22    30.01S
Atlantic City  MOSUNNY   88  61  40 W14G23    29.99
Wrightstown    CLOUDY    84  65  53 NW13      29.97R
Toms River     CLOUDY    88  64  44 W12G23    30.00R
Belmar         CLOUDY    85  63  47 W14       29.99R
$$

PAZ047>061-062-071-291900-
EASTERN PENNSYLVANIA

CITY           SKY/WX    TMP DP  RH WIND       PRES   REMARKS
Philadelphia   PTSUNNY   84  62  47 SW15      30.01R
Allentown      CLOUDY    80  62  54 W17       30.01R
Scranton       CLOUDY    73  62  68 SW10      30.02R
$$

CTZ002-004>006-009-010-012-RIZ004-006-007-MAZ004-011-015-291900-
SOUTHERN NEW ENGLAND
 IN CT

CITY           SKY/WX    TMP DP  RH WIND       PRES   REMARKS
Bradley INTL   CLOUDY    83  59  44 W9        29.88F
Hartford       CLOUDY    82  61  48 SW12      29.87F
Danbury        MOSUNNY   77  61  57 SW17      29.94F
Wtrbury/Oxford PTSUNNY   79  57  47 W12G22    29.95S
Bridgeport     MOSUNNY   76  59  55 SW13      29.90F
Meriden        MOSUNNY   86  59  39 W14G21    29.88F
New Haven      PTSUNNY   70  60  70 VRB7      29.90F
Chester          N/A     79  64  61 SW9G17    29.91F
Groton         MOSUNNY   72  63  73 SW13      29.88F
Wilimantic     CLOUDY    84  61  45 SW10G17   29.88F

 IN RI

CITY           SKY/WX    TMP DP  RH WIND       PRES   REMARKS
Providence     PTSUNNY   82  65  56 W9        29.85F
Block Island   SUNNY     64  58  80 SW17      29.92F
Westerly       MOSUNNY   75  63  66 W12       29.90F
 IN MA

CITY           SKY/WX    TMP DP  RH WIND       PRES   REMARKS
Boston         CLOUDY    81  57  43 W18       29.82F
Worcester      CLOUDY    76  54  46 W17G23    29.89F
Westfield      CLOUDY    80  58  46 W13       29.87F
Provincetown   CLOUDY    66  59  78 SW15      29.85F
Nantucket      FOG       57  53  86 SW14      29.90F VSB 1/2
$$

ANZ330-335-338-340-345-350-353-355-291900-
COASTAL MARINE OBSERVATIONS


STATION/POSITION TIME  SKY/WX   TEMP    WIND        PRES    VSBY  WAVE
                                AIR SEA DIR/SP/G                  HT/PER
                 (UTC)          (F)     (DEG/KT/KT) (MB)    (MI)  (FT/S)
NY HARB ENTRANCE 1650            60 54  190/ 10/ 12 1015.5          3/ 8
20 S FIRE ISLAND 1750            54 50  200/ 12/ 14 1014.0          4/ 8
GREAT SOUTH BAY  NOT AVBL
23 SSW MONTAUK P 1650            51 48              1015.0          4/ 8
15 E BARNEGAT LI 1730               55                N/A           4/ 6
HUDSON CANYON    1650            53 49  230/ 14/ 16 1016.8          5/ 8
KINGS POINT      1742            74 52  290/ 11/ 14 1013.5
EXECUTION ROCKS  NOT AVBL
CENTRAL LI SOUND NOT AVBL
EASTERN LI SOUND NOT AVBL
ROBBINS REEF     1742            79     250/ 13/ 15 1014.1
$$


>>>>>>>>>>>>>>>>>>>>>>>>>>>> KEY <<<<<<<<<<<<<<<<<<<<<<<<<<<
>                                                          <
>     SKY/WX - Sky Condition/Present Weather               <
>     TMP    - Temperature in Fahrenheit                   <
>     DP     - Dew Point in Fahrenheit                     <
>     RH     - Relative Humidity in Percent                <
>     WIND   - Direction (from) and Speed in MPH           <
>     PRES   - Mean Sea Level Pressure (inches of Hg)      <
>     WCI    - Wind Chill Index                            <
>     VSB    - VISIBILITY IN MILES                         <
>     HX     - HEAT INDEX                                  <
>     TC     - TEMPERATURE IN CELSIUS                      <
>     VRB    - VARIABLE WIND DIRECTION                     <
>                                                          <
>>>>>>>>>>>>>>>>>>>>>>>>>>>> KEY <<<<<<<<<<<<<<<<<<<<<<<<<<<




USA.gov is the U.S. government's official web portal to all federal, state and local government web resources and services.